www.pogodaiklimat.ru

Погода и климат >> Архив погоды >> Россия >> Ямало-Ненецкий АО >> Белоярск


ПОГОДА в Белоярске

  • Прогноз погоды в Белоярске
  • Монитор погоды в Белоярске

АРХИВ ПОГОДЫ в Белоярске

Время (UTC), дата Ветер
(напр.,м/с)
 
Видим.   Явления Облачность Т
(С)
Тd
(С)
f
(%)
Тe
(С)
Тes
(С)
Комфортность P
(гПа)
Po
(гПа)
Тmin
(С)
Tmax
(С)
R
(мм)
R24
(мм)
S
(см)
18 16.07 В 5 н/о н/о +16.5 +16.0 97 +16 +16 1012.2 1008.1
21 16.07 В 6 н/о н/о +13.9 -27.7 4 +12 +12 1012.2 1008.0
00 17.07 СВ 7
{11}
н/о н/о +14.6 -24.9 5 +13 +13 1012.7 1008.5
03 17.07 В 7
{11}
н/о н/о +19.7 +17.9 89 +22 +22 комфорт 1012.4 1008.3 +13.3
06 17.07 ЮВ 4
{10}
н/о н/о +25.0 -19.9 4 +21 +21 комфорт 1011.7 1007.7
09 17.07 ЮВ 6 н/о н/о +27.6 -18.2 4 +23 +23 комфорт 1011.2 1007.2
12 17.07 ЮВ 5 н/о н/о +27.4 -18.3 4 +23 +23 комфорт 1011.0 1006.9
15 17.07 ЮВ 4 н/о н/о +26.6 -18.9 4 +23 +23 комфорт 1010.7 1006.6 +27.7
18 17.07 ЮВ 3 н/о н/о +22.8 -21.5 4 +20 +20 1010.3 1006.2
21 17.07 В 2 н/о н/о +19.3 +17.9 92 +22 +22 комфорт 1010.3 1006.2
00 18.07 СВ 5 н/о н/о +18.4 +16.8 90 +19 +19 1010.5 1006.4
03 18.07 В 5 н/о н/о +20.1 +19.4 96 +24 +24 комфорт 1010.5 1006.4 +18.1
06 18.07 С 2 н/о н/о +21.7 +21.0 96 +28 +28 душно 1010.6 1006.5
09 18.07 Ю 2 н/о н/о +25.5 -19.6 4 +22 +22 комфорт 1010.1 1006.1
12 18.07 ЮВ 3 н/о н/о +25.5 -19.6 4 +22 +22 комфорт 1009.7 1005.7
15 18.07 ЮВ 2 н/о н/о +22.4 -21.8 4 +20 +20 1010.2 1006.1 +25.9 2
18 18.07 штиль 0 н/о н/о +20.6 +11.1 54 +22 +22 комфорт 1010.6 1006.5
21 18.07 ЮВ 1 н/о н/о +20.3 +19.1 93 +25 +25 комфорт 1010.2 1006.1
00 19.07 В 3 н/о н/о +19.1 +18.4 96 +21 +21 комфорт 1011.1 1007.0
03 19.07 В 4 н/о н/о +21.2 +14.0 63 +24 +24 комфорт 1011.5 1007.4 +18.3 0.9
06 19.07 З 1 н/о н/о +21.2 +11.4 54 +23 +23 комфорт 1011.5 1007.4
09 19.07 ЮЗ 2 н/о н/о +24.3 -20.5 4 +21 +21 комфорт 1011.3 1007.3
12 19.07 ЮЗ 3 н/о н/о +22.2 -21.9 4 +20 +20 1011.7 1007.6
15 19.07 Ю 1 н/о н/о +20.9 +17.0 78 +26 +26 душно 1011.6 1007.6 +24.5
18 19.07 Ю 2 н/о н/о +16.8 +14.5 86 +17 +17 1012.5 1008.4
21 19.07 ЮЗ 2 н/о н/о +16.1 +15.5 96 +16 +16 1012.8 1008.6
00 20.07 Ю 3 н/о н/о +17.4 +16.8 96 +17 +17 1012.9 1008.8
03 20.07 ЮВ 5 н/о н/о +18.0 +13.8 76 +18 +18 1013.1 1009.0 +15.6
06 20.07 ЮВ 5 н/о н/о +17.5 +13.4 77 +17 +17 1013.7 1009.5
09 20.07 ЮВ 4 н/о н/о +17.0 +12.4 74 +17 +17 1014.4 1010.2
12 20.07 ЮВ 4 н/о н/о +17.2 +12.0 71 +17 +17 1014.7 1010.6
15 20.07 ЮВ 4 н/о н/о +17.0 +12.0 72 +17 +17 1014.4 1010.2 +18.3
18 20.07 Ю 1 н/о н/о +14.9 -27.0 4 +16 +16 1014.4 1010.2
21 20.07 Ю 2 н/о н/о +14.5 -27.3 4 +15 +15 1014.8 1010.6
00 21.07 ЮЗ 2 н/о н/о +14.0 -27.6 4 +14 +14 1015.2 1011.0
03 21.07 З 2 н/о н/о +18.3 +13.3 73 +19 +19 1014.6 1010.5 +11.2
06 21.07 СЗ 1 н/о н/о +20.2 -23.3 4 +20 +20 1014.7 1010.5
09 21.07 СЗ 1 н/о н/о +20.6 -5.3 17 +21 +21 комфорт 1014.6 1010.5
12 21.07 ЮВ 2 н/о н/о +20.9 -20.4 5 +20 +20 1014.4 1010.3
15 21.07 В 2 н/о н/о +20.9 -20.4 5 +20 +20 1014.2 1010.0 +21.9 2
18 21.07 В 2 н/о н/о +17.5 +14.0 80 +18 +18 1013.8 1009.7
21 21.07 В 3 н/о н/о +15.5 -26.6 4 +15 +15 1014.2 1010.0
00 22.07 СВ 8
{12}
н/о н/о +13.9 -27.7 4 +12 +12 1015.1 1010.8
03 22.07 В 8
{13}
н/о н/о +15.6 -26.5 4 +14 +14 1015.4 1011.2 +13.6
06 22.07 СВ 8
{12}
н/о н/о +18.1 +12.9 72 +17 +17 1015.6 1011.4
09 22.07 СВ 8
{12}
н/о н/о +19.9 +11.6 59 +21 +21 комфорт 1015.8 1011.7
12 22.07 СВ 8
{13}
н/о н/о +16.9 -25.6 4 +16 +16 1016.6 1012.4
18 22.07 СВ 7
{11}
н/о н/о +10.6 -30.1 4 +8 +8 1018.2 1014.0

 

Местоположение метеостанции Белоярск (Ямало-Ненецкий АО, Россия): широта 66.87 долгота 68.13 высота над уровнем моря 35 м.

В архиве по умолчанию представлена погода в Белоярске за последнюю неделю. Архивные данные за месяц целиком и за предыдущие месяцы, начиная с января 2011 года, Вы можете получить, выбрав интересующий диапазон дат из раскрывающегося списка и нажав кнопку "Ввод!".


*Определитесь, кто Вы:
робот инопланетянин человек

Внимание! Время в таблицах - всемирное. Для получения местного времени необходимо прибавить поправку, которая равна 5 ч.

Смотрите также архив погоды в соседних городах и на ближайших метеорологических станциях:

Погода в Салехарде (Ямало-Ненецкий АО, Россия) (75 км)
Погода в Полуе (Ямало-Ненецкий АО, Россия) (97 км)
Погода в Харпе (Ямало-Ненецкий АО, Россия) (103 км)
Погода в Питляре (Ямало-Ненецкий АО, Россия) (152 км)
Погода в Елецкой (Коми, Россия) (178 км)
Погода в Воркуте (Коми, Россия) (192 км)
Погода в Ныде (Ямало-Ненецкий АО, Россия) (212 км)
Погода в Новом Порте (Ямало-Ненецкий АО, Россия) (223 км)
Погода в Мужах (Ямало-Ненецкий АО, Россия) (226 км)
Погода в Надыме (Ямало-Ненецкий АО, Россия) (257 км)

Пояснения к столбцам:

Ветер - указаны скорость ветра в м/с - средняя за 10 мин, порывы в срок и между сроками (в фигурных скобках) и направление, откуда дует ветер: С - северный, СВ - северо-восточный, В - восточный, ЮВ - юго-восточный, Ю - южный, ЮЗ - юго-западный, З - западный, СЗ - северо-западный.
Видимость - горизонтальная дальность видимости в метрах или километрах. При видимости от 1 до 10 км при отсутствии осадков обычно наблюдается дымка, при ухудшении видимости до 1 км и менее - туман. В сухую погоду видимость может ухудшаться дымом, пылью или мглою.
Явления - указаны атмосферные явления, наблюдавшиеся в срок или в последний час перед сроком; фигурными скобками обозначены явления, наблюдавшиеся между сроками (за 1-3 часа до срока); квадратными скобками обозначены град или гололедные отложения с указанием их диаметра в мм.
Облачность - указаны через наклонную черту общая и нижняя облачность в баллах и высота нижней границы облаков в метрах; квадратными скобками обозначены формы облаков: Ci - перистые, Cs - перисто-слоистые, Cc - перисто-кучевые, Ac - высококучевые, As - высокослоистые, Sc - слоисто-кучевые, Ns - слоисто-дождевые, Cu - кучевые, Cb - кучево-дождевые. Подробнее классификацию облаков см. в Атласе облаков (PDF).
T - Температура воздуха - температура, измеренная на высоте 2 м над землей.
Td - Температура точки росы - температура, при понижении до которой содержащийся в воздухе водяной пар достигнет насыщения.
f - Относительная влажность воздуха - влажноcть воздуха, измеренная на высоте 2 м над землей.
Te - Эффективная температура - температура, которую ощущает одетый по сезону человек в тени. Характеристика душности погоды. При расчете учитывается влияние влажности воздуха и скорости ветра на теплоощущения человека.
Tes - Эффективная температура на солнце - температура, которую ощущает человек, с поправкой на солнечный нагрев. Характеристика знойности погоды. Зависит от высоты солнца над горизонтом, облачности и скорости ветра. Ночью, в пасмурную погоду, а также при ветре 12 м/с и более поправка равна нулю.
P - Атмосферное давление - приведенное к уровню моря атмосферное давление.
Po - Атмосферное давление - измеренное на уровне метеостанции атмосферное давление.
Tmin - Минимальная температура - минимум температуры воздуха на высоте 2 м над землей.
Tmax - Максимальная температура - максимум температуры воздуха на высоте 2 м над землей.
R - Количество осадков - Количество выпавших осадков за период времени, мм. При наведении курсора мыши на число - период времени, за который выпало указанное количество осадков.
R24 - Количество осадков - Количество выпавших осадков за 24 часа, мм.
S - Снежный покров - Высота снежного покрова, см. При наведении курсора мыши на число - состояние снежного покрова и степень покрытия местности в баллах.